Change the Weather History Date:

Sunday, February 23, 2014

  Actual Average (KEFC) Record (KEFC)
Temperature  
Mean Temperature 10 °F -  
Max Temperature 19 °F 44 °F 68 °F (1976)
Min Temperature 1 °F 17 °F -25 °F (1965)
Degree Days  
Heating Degree Days 55    
Moisture  
Dew Point 7 °F    
Average Humidity 78    
Maximum Humidity 92    
Minimum Humidity 63    
Precipitation  
Precipitation 0.00 in - - ()
Sea Level Pressure  
Sea Level Pressure 30.10 in    
Wind  
Wind Speed 5 mph (ENE)    
Max Wind Speed 13 mph    
Max Gust Speed 21 mph    
Visibility 9 miles    
Events Snow    
Averages and records for this station are not official NWS values.
T = Trace of Precipitation, MM = Missing Value Source: NWS Daily Summary

Daily Weather History Graph

Daily Weather History Graph

Search for Another Location

Airport or City:

Trip Planner

Search our weather history database for the weather conditions in past years. The results will help you decide how hot, cold, wet, or windy it might be!

Date:

Astronomy

Feb. 23, 2014 Rise Set
Actual Time 6:45 AM MST 5:38 PM MST
Civil Twilight 6:16 AM MST 6:07 PM MST
Nautical Twilight 5:42 AM MST 6:41 PM MST
Astronomical Twilight 5:08 AM MST 7:15 PM MST
Moon 1:53 AM MST (2/23) 11:35 AM MST (2/23)
Length of Visible Light 11h 51m
Length of Day
10h 52m
Last Quarter, 38% of the Moon is Illuminated
Feb 23
Last Quarter
Mar 1
New
Mar 8
First Quarter
Mar 16
Full
Mar 23
Last Quarter

Hourly Weather History & Observations

Time (MST) Temp. Windchill Dew Point Humidity Pressure Visibility Wind Dir Wind Speed Gust Speed Precip Events Conditions
12:15 AM 6.8 °F -0.1 °F 3.2 °F 85% 30.10 in 10.0 mi SSW 3.5 mph - N/A   Clear
12:35 AM 5.0 °F -4.1 °F 1.4 °F 85% 30.10 in 10.0 mi SSW 4.6 mph - N/A   Scattered Clouds
12:55 AM 3.2 °F - -0.4 °F 85% 30.10 in 10.0 mi North - - N/A   Scattered Clouds
1:15 AM 1.4 °F - -2.2 °F 85% 30.10 in 10.0 mi Calm Calm - N/A   Scattered Clouds
1:35 AM 5.0 °F - 1.4 °F 85% 30.10 in 10.0 mi North - - N/A   Clear
1:55 AM 5.0 °F - 1.4 °F 85% 30.10 in 10.0 mi Calm Calm - N/A   Clear
2:15 AM 3.2 °F - -0.4 °F 85% 30.10 in 10.0 mi North - - N/A   Clear
2:35 AM 5.0 °F - 1.4 °F 85% 30.10 in 10.0 mi North - - N/A   Clear
2:55 AM 3.2 °F - -0.4 °F 85% 30.09 in 10.0 mi North - - N/A   Scattered Clouds
3:15 AM 3.2 °F -4.2 °F -0.4 °F 85% 30.10 in 10.0 mi SSE 3.5 mph - N/A   Scattered Clouds
3:35 AM 3.2 °F -6.2 °F -0.4 °F 85% 30.11 in 10.0 mi South 4.6 mph - N/A   Scattered Clouds
3:55 AM 3.2 °F - -0.4 °F 85% 30.11 in 10.0 mi Calm Calm - N/A   Mostly Cloudy
4:15 AM 5.0 °F - 1.4 °F 85% 30.11 in 10.0 mi North - - N/A   Overcast
4:35 AM 5.0 °F - 1.4 °F 85% 30.11 in 10.0 mi North - - N/A   Overcast
4:55 AM 6.8 °F - 3.2 °F 85% 30.11 in 10.0 mi North - - N/A   Overcast
5:15 AM 6.8 °F - 3.2 °F 85% 30.11 in 10.0 mi North - - N/A   Overcast
5:35 AM 5.0 °F - 1.4 °F 85% 30.12 in 10.0 mi Calm Calm - N/A   Overcast
5:55 AM 5.0 °F - 1.4 °F 85% 30.12 in 10.0 mi North - - N/A   Overcast
6:15 AM 5.0 °F - 3.2 °F 92% 30.12 in 10.0 mi North - - N/A   Overcast
6:35 AM 6.8 °F - 3.2 °F 85% 30.12 in 10.0 mi North - - N/A   Overcast
6:55 AM 5.0 °F - 1.4 °F 85% 30.12 in 10.0 mi North - - N/A   Overcast
7:15 AM 8.6 °F - 3.2 °F 79% 30.13 in 10.0 mi North - - N/A   Overcast
7:35 AM 8.6 °F - 5.0 °F 85% 30.14 in 10.0 mi Calm Calm - N/A   Overcast
7:55 AM 10.4 °F 4.0 °F 5.0 °F 79% 30.14 in 10.0 mi ENE 3.5 mph - N/A   Overcast
8:15 AM 10.4 °F 2.2 °F 5.0 °F 79% 30.15 in 10.0 mi ENE 4.6 mph - N/A   Overcast
8:35 AM 10.4 °F 4.0 °F 5.0 °F 79% 30.15 in 10.0 mi ENE 3.5 mph - N/A   Overcast
8:55 AM 12.2 °F 2.9 °F 5.0 °F 73% 30.15 in 10.0 mi ENE 5.8 mph - N/A   Overcast
9:15 AM 12.2 °F 4.3 °F 6.8 °F 79% 30.15 in 10.0 mi ENE 4.6 mph - N/A   Overcast
9:35 AM 12.2 °F 4.3 °F 6.8 °F 79% 30.15 in 10.0 mi ENE 4.6 mph - N/A   Overcast
9:55 AM 14.0 °F 6.5 °F 6.8 °F 73% 30.16 in 10.0 mi NE 4.6 mph - N/A   Overcast
10:15 AM 14.0 °F 6.5 °F 6.8 °F 73% 30.15 in 10.0 mi NNE 4.6 mph - N/A   Overcast
10:35 AM 14.0 °F 6.5 °F 8.6 °F 79% 30.15 in 10.0 mi NNE 4.6 mph - N/A   Overcast
10:55 AM 15.8 °F 6.1 °F 8.6 °F 73% 30.15 in 10.0 mi NNE 6.9 mph - N/A   Overcast
11:15 AM 17.6 °F 9.3 °F 8.6 °F 68% 30.15 in 10.0 mi NNE 5.8 mph - N/A   Overcast
11:35 AM 17.6 °F 9.3 °F 8.6 °F 68% 30.15 in 10.0 mi NE 5.8 mph - N/A   Mostly Cloudy
11:55 AM 17.6 °F 8.2 °F 8.6 °F 68% 30.15 in 10.0 mi NNE 6.9 mph - N/A   Mostly Cloudy
12:15 PM 19.4 °F 11.5 °F 8.6 °F 63% 30.14 in 10.0 mi NNE 5.8 mph - N/A   Overcast
12:35 PM 19.4 °F 10.4 °F 8.6 °F 63% 30.13 in 10.0 mi North 6.9 mph - N/A   Overcast
12:55 PM 19.4 °F 10.4 °F 8.6 °F 63% 30.12 in 10.0 mi NNE 6.9 mph - N/A   Overcast
1:15 PM 19.4 °F 10.4 °F 8.6 °F 63% 30.12 in 10.0 mi North 6.9 mph - N/A   Overcast
1:35 PM 19.4 °F 10.4 °F 8.6 °F 63% 30.12 in 10.0 mi NNE 6.9 mph - N/A   Overcast
1:55 PM 19.4 °F 11.5 °F 8.6 °F 63% 30.11 in 10.0 mi NNE 5.8 mph - N/A   Overcast
2:15 PM 19.4 °F 8.6 °F 10.4 °F 68% 30.10 in 10.0 mi NNE 9.2 mph - N/A   Overcast
2:35 PM 19.4 °F 10.4 °F 8.6 °F 63% 30.10 in 10.0 mi NNE 6.9 mph - N/A   Overcast
2:55 PM 19.4 °F 10.4 °F 10.4 °F 68% 30.10 in 10.0 mi ENE 6.9 mph - N/A   Overcast
3:15 PM 19.4 °F 8.6 °F 10.4 °F 68% 30.10 in 10.0 mi ENE 9.2 mph - N/A   Overcast
3:35 PM 19.4 °F 9.5 °F 10.4 °F 68% 30.09 in 10.0 mi ENE 8.1 mph - N/A   Overcast
3:55 PM 19.4 °F 9.5 °F 10.4 °F 68% 30.09 in 10.0 mi East 8.1 mph - N/A   Overcast
4:15 PM 17.6 °F - 10.4 °F 73% 30.09 in 5.0 mi North - - N/A   Haze
4:35 PM 17.6 °F 6.4 °F 10.4 °F 73% 30.08 in 5.0 mi ENE 9.2 mph - N/A   Haze
4:55 PM 17.6 °F 8.2 °F 12.2 °F 79% 30.08 in 3.0 mi East 6.9 mph - N/A Snow Light Snow
5:15 PM 17.6 °F 8.2 °F 10.4 °F 73% 30.08 in 4.0 mi East 6.9 mph - N/A Snow Light Snow
5:35 PM 17.6 °F 7.3 °F 10.4 °F 73% 30.08 in 7.0 mi East 8.1 mph - N/A   Overcast
5:55 PM 17.6 °F 4.3 °F 10.4 °F 73% 30.08 in 10.0 mi ESE 12.7 mph 20.7 mph N/A   Overcast
6:15 PM 15.8 °F 2.7 °F 10.4 °F 79% 30.08 in 5.0 mi ESE 11.5 mph - N/A   Haze
6:35 PM 15.8 °F 2.1 °F 10.4 °F 79% 30.09 in 5.0 mi ESE 12.7 mph 19.6 mph N/A   Haze
6:55 PM 15.8 °F 3.4 °F 10.4 °F 79% 30.10 in 4.0 mi ESE 10.4 mph - N/A Snow Light Snow
7:15 PM 15.8 °F 2.7 °F 10.4 °F 79% 30.08 in 2.5 mi SE 11.5 mph - N/A Snow Light Snow
7:35 PM 15.8 °F 3.4 °F 10.4 °F 79% 30.08 in 2.5 mi ESE 10.4 mph - N/A Snow Light Snow
7:55 PM 15.8 °F 3.4 °F 10.4 °F 79% 30.07 in 4.0 mi SE 10.4 mph - N/A Snow Light Snow
8:15 PM 14.0 °F 1.2 °F 8.6 °F 79% 30.06 in 10.0 mi ESE 10.4 mph - N/A   Overcast
8:35 PM 14.0 °F - 8.6 °F 79% 30.06 in 10.0 mi North - - N/A   Overcast
8:55 PM 14.0 °F 1.2 °F 8.6 °F 79% 30.05 in 10.0 mi ESE 10.4 mph - N/A   Overcast
9:15 PM 14.0 °F - 8.6 °F 79% 30.04 in 10.0 mi North - - N/A Snow Light Snow
9:35 PM 14.0 °F 3.9 °F 8.6 °F 79% 30.03 in 10.0 mi ESE 6.9 mph - N/A Snow Light Snow
9:55 PM 14.0 °F - 8.6 °F 79% 30.03 in 7.0 mi North - - N/A Snow Light Snow
10:15 PM 14.0 °F - 10.4 °F 86% 30.01 in 7.0 mi North - - N/A Snow Light Snow
10:35 PM 14.0 °F - 10.4 °F 86% 30.02 in 10.0 mi North - - N/A Snow Light Snow
10:55 PM 14.0 °F 8.2 °F 10.4 °F 86% 30.02 in 10.0 mi ENE 3.5 mph - N/A   Overcast
11:15 PM 14.0 °F 8.2 °F 10.4 °F 86% 30.01 in 2.0 mi ENE 3.5 mph - N/A Snow Light Snow
11:35 PM 14.0 °F - 10.4 °F 86% 29.99 in 0.5 mi North - - N/A Snow Snow
11:55 PM 14.0 °F - 10.4 °F 86% 29.99 in 1.0 mi North - - N/A Snow Light Snow